DECAYED

FENGYUN 1C DEB, 31971 (Decayed)

Orbit data source: Space-Track

FENGYUN 1C DEB, 31971 was space debris in SSO originally from a launch on Mon, 10 May 1999 UTC launched from the Taiyaun Space Center, China (TSC). Fengyun 1C debris stems from the Chinese weather satellite Fengyun-1C, which was intentionally destroyed by a Chinese anti-satellite missile in 2007. This event dramatically increased the amount of space debris, with thousands of trackable fragments posing hazards to satellites and human spaceflight. The Fengyun 1C debris cloud has become a focal point in discussions about space sustainability and the need for international regulations to prevent the creation of new debris.

Not visible in the next 10 days
Identifier
31971, 1999-025CNY
Orbit
Decayed
Country
Flag of CNCN / PRC
Related business
Manufacturer
Unknown
Mission
Decayed spacecraft
Bus & Motor
Unknown
Mass
Unknown
Launch date (UTC)
1999-05-10 (27 years ago)
Launch vehicle
Unknown
Launch site
Taiyaun Space Center, China (TSC)
Object type
Payload
Rocket body
Debris
Shape & HBR
Unknown shape, 0.1 m
Radar Cross Section
Small (<0.1 m²)

Expand to show TLE details & history
Last TLE update: 2 years ago

TLE from 2 years ago
0 FENGYUN 1C DEB
1 31971U 99025CNY 25033.20933837  .00501706  00000-0  24327-1 0  9992
2 31971 102.2290 192.1800 0025541 294.6261 238.9297 15.15842564 43836
Epoch: 2025-02-02T05:01Z
TLE epoch observation values (Epoch: 2025-02-02T05:01:26.835Z)
Latitude
6.46493°
Longitude
165.57115°
Altitude
529.843 km
Speed
7.594 km/s
True Right ascension
00h 54m 19s
True Declination
6° 25' 31"
Sunlit
Object was in daylight at epoch
Visualization orbit readout
Latitude
Unknown
Longitude
Unknown
Altitude
Unknown
Speed
Unknown
Apparent Right ascension
Unknown
Apparent Declination
Unknown
Sunlit
N/A
Visualization observer readout
Local Sidereal Time
08:49:04
Azimuth
Unknown
Elevation
Unknown
Doppler factor
Unknown
Orbital elements
Apogee altitude
533.271 km
Perigee altitude
498.056 km
Semi-major axis
6,893.801 km
Eccentricity
0.00255
Inclination
102.229°
RAAN
192.18°
Arg. of periapsis
294.6261°
True anomaly
238.67942°
Mean anomaly
238.9297°
Eccentric anomaly
238.80452°
Mean motion
3.79188 °/min
Orbital period
94.94 mins
BSTAR
0.024327
Loading maneuver chart data...
Computing Atmospheric mass density...

Documentation

Showing up to 5 results
|